Total_Precipitation_Accumulation
0.65 1.01 1.32 1.17 1.15 1.21 1.06 1.10 1.17 1.16 1.01 1.13 1.20 1.16 1.24 1.20 1.16 1.01 0.93 0.89 0.91 0.88 0.89 0.88 0.90 1.00 0.97 0.87 0.83 0.93 1.14 1.33 1.48 1.64 1.82 1.99 2.11 2.15 2.07 2.01 2.03 1.96 1.82 1.90
0.87 1.02 0.84 0.77 0.84 0.93 0.97 1.07 1.13 1.07 0.90 1.00 1.07 1.10 1.18 1.09 1.00 0.84 0.78 0.76 0.73 0.71 0.76 0.79 0.76 0.77 0.78 0.77 0.77 0.87 1.06 1.34 1.54 1.72 1.94 2.14 2.49 2.62 2.54 2.51 2.36 2.27 2.20 2.26
0.83 0.73 0.61 0.73 0.87 0.97 0.97 0.96 0.99 1.00 1.04 1.04 1.04 1.23 1.27 1.15 0.98 0.81 0.69 0.64 0.62 0.57 0.62 0.68 0.65 0.63 0.61 0.62 0.68 0.80 0.93 1.15 1.48 1.82 2.09 2.31 2.55 2.80 2.85 2.70 2.60 2.52 2.55 2.62
0.69 0.57 0.55 0.67 0.74 0.84 1.08 0.71 0.68 0.77 1.03 1.29 1.07 1.47 1.24 1.08 0.97 0.79 0.71 0.67 0.62 0.61 0.63 0.63 0.61 0.62 0.60 0.64 0.72 0.84 0.93 1.08 1.28 1.55 1.95 2.33 2.60 2.93 2.94 2.76 2.73 2.72 2.73 2.74
0.63 0.55 0.58 0.68 0.61 0.63 0.80 0.55 0.60 0.75 0.85 0.93 0.81 1.10 1.12 0.92 1.00 0.90 0.80 0.77 0.71 0.64 0.65 0.63 0.63 0.63 0.67 0.71 0.77 0.89 0.99 1.15 1.30 1.56 1.90 2.29 2.55 2.78 2.94 2.88 2.70 2.62 2.66 2.54
0.57 0.48 0.49 0.52 0.47 0.51 0.60 0.64 0.70 0.74 0.86 1.02 0.63 0.82 1.06 0.97 0.91 0.89 0.84 0.83 0.74 0.60 0.65 0.68 0.72 0.74 0.73 0.79 0.88 1.00 1.14 1.33 1.48 1.59 1.72 1.89 2.11 2.46 2.62 2.72 2.70 2.65 2.65 2.47
0.58 0.50 0.39 0.37 0.55 0.57 0.62 0.95 1.30 1.27 1.23 1.04 0.51 0.72 0.97 0.80 0.69 0.69 0.70 0.72 0.73 0.69 0.73 0.80 0.89 0.90 0.89 0.90 1.05 1.17 1.28 1.36 1.41 1.39 1.44 1.58 1.77 2.04 2.19 2.28 2.39 2.43 2.47 2.43
0.61 0.57 0.41 0.34 0.44 0.59 0.60 0.80 1.30 1.40 1.18 0.95 0.73 0.97 1.03 0.73 0.60 0.59 0.60 0.61 0.67 0.77 0.85 0.99 1.11 1.17 1.11 1.10 1.13 1.16 1.24 1.23 1.24 1.28 1.35 1.43 1.56 1.74 1.83 1.91 2.03 2.08 2.03 1.99
0.59 0.53 0.30 0.27 0.27 0.39 0.54 0.52 0.57 0.84 0.81 0.93 0.90 1.00 0.97 0.68 0.57 0.57 0.62 0.64 0.69 0.84 0.99 1.17 1.35 1.40 1.29 1.22 1.20 1.23 1.32 1.28 1.21 1.25 1.39 1.46 1.51 1.53 1.55 1.61 1.57 1.57 1.60 1.60
0.48 0.52 0.34 0.26 0.30 0.32 0.37 0.43 0.61 0.98 1.24 1.27 1.04 1.06 1.13 0.84 0.64 0.62 0.71 0.85 0.95 1.10 1.21 1.37 1.48 1.47 1.42 1.45 1.43 1.29 1.27 1.32 1.28 1.40 1.46 1.44 1.43 1.40 1.42 1.45 1.47 1.43 1.50 1.56
0.43 0.56 0.43 0.33 0.35 0.36 0.34 0.43 0.66 0.96 1.04 1.38 1.55 1.45 0.99 0.83 0.77 0.75 0.82 1.11 1.21 1.29 1.38 1.45 1.53 1.51 1.41 1.40 1.39 1.37 1.33 1.31 1.34 1.39 1.45 1.37 1.37 1.40 1.39 1.37 1.42 1.48 1.53 1.62
0.46 0.63 0.55 0.33 0.28 0.31 0.45 0.59 0.80 1.29 1.28 1.17 1.57 1.63 1.01 0.85 0.85 0.86 0.88 0.95 1.04 1.26 1.36 1.40 1.51 1.49 1.38 1.35 1.24 1.28 1.37 1.37 1.44 1.48 1.42 1.36 1.46 1.51 1.56 1.55 1.49 1.50 1.49 1.46
0.61 0.83 0.87 0.67 0.61 0.55 0.58 0.66 0.82 1.08 1.31 1.33 1.51 1.52 1.06 0.81 0.77 0.82 0.91 0.92 0.99 1.10 1.13 1.11 1.23 1.35 1.31 1.26 1.18 1.26 1.32 1.37 1.40 1.47 1.50 1.40 1.33 1.39 1.47 1.55 1.52 1.48 1.45 1.44
0.63 0.80 0.93 0.94 0.80 0.71 0.64 0.57 0.65 0.96 1.28 1.28 1.32 1.27 0.96 0.79 0.76 0.79 0.83 0.90 0.90 0.89 0.90 0.86 0.89 1.02 1.03 1.04 1.11 1.18 1.31 1.46 1.50 1.50 1.48 1.46 1.44 1.49 1.47 1.43 1.40 1.39 1.37 1.32
0.54 0.57 0.51 0.42 0.38 0.43 0.50 0.51 0.61 0.77 0.94 1.20 1.09 0.88 0.74 0.69 0.65 0.67 0.73 0.68 0.66 0.67 0.72 0.75 0.74 0.80 0.83 0.85 0.92 1.00 1.10 1.32 1.45 1.53 1.52 1.45 1.42 1.40 1.43 1.41 1.28 1.24 1.16 1.14
0.54 0.49 0.36 0.28 0.26 0.33 0.44 0.54 0.68 0.75 0.81 0.83 0.74 0.71 0.55 0.51 0.46 0.47 0.53 0.55 0.59 0.59 0.59 0.62 0.64 0.68 0.74 0.75 0.82 0.85 0.97 1.14 1.25 1.30 1.35 1.45 1.44 1.31 1.25 1.25 1.23 1.16 1.08 1.05
0.40 0.40 0.38 0.33 0.24 0.39 0.63 0.65 0.71 0.72 0.67 0.59 0.57 0.51 0.38 0.35 0.32 0.33 0.38 0.44 0.54 0.55 0.51 0.51 0.51 0.57 0.66 0.74 0.77 0.83 0.96 1.09 1.14 1.20 1.24 1.30 1.31 1.22 1.15 1.09 1.05 1.04 1.00 1.03
0.37 0.41 0.52 0.44 0.38 0.70 0.86 0.63 0.56 0.63 0.55 0.40 0.38 0.37 0.34 0.30 0.25 0.23 0.23 0.26 0.31 0.36 0.39 0.47 0.47 0.46 0.51 0.60 0.74 0.90 0.96 0.97 0.99 1.06 1.11 1.08 1.08 1.07 1.07 0.97 0.95 0.96 0.99 1.03
0.37 0.48 0.62 0.61 0.61 0.72 0.75 0.52 0.48 0.57 0.57 0.34 0.29 0.29 0.26 0.26 0.23 0.19 0.17 0.18 0.20 0.23 0.29 0.36 0.40 0.40 0.41 0.45 0.52 0.60 0.69 0.77 0.79 0.88 0.93 0.94 0.94 0.94 0.95 0.93 1.02 1.05 1.02 1.04
0.50 0.59 0.68 0.68 0.80 0.87 0.59 0.28 0.27 0.43 0.67 0.33 0.23 0.23 0.23 0.24 0.26 0.22 0.20 0.19 0.18 0.17 0.19 0.24 0.28 0.30 0.30 0.33 0.37 0.45 0.52 0.61 0.68 0.76 0.81 0.87 0.90 0.92 0.97 1.12 1.24 1.26 1.19 1.08
0.47 0.54 0.65 0.73 0.95 0.87 0.51 0.26 0.29 0.56 0.72 0.37 0.23 0.23 0.27 0.26 0.24 0.22 0.22 0.21 0.20 0.17 0.16 0.19 0.22 0.24 0.26 0.28 0.31 0.37 0.44 0.45 0.50 0.57 0.68 0.82 0.94 0.98 1.10 1.26 1.30 1.26 1.19 1.06
0.51 0.64 0.75 0.90 1.14 1.13 0.58 0.36 0.46 0.48 0.33 0.26 0.21 0.20 0.22 0.23 0.24 0.26 0.26 0.23 0.23 0.23 0.21 0.20 0.20 0.20 0.24 0.28 0.30 0.35 0.43 0.43 0.49 0.52 0.57 0.67 0.83 0.96 1.10 1.25 1.25 1.24 1.21 1.11
0.45 0.74 1.01 1.03 1.04 0.78 0.48 0.38 0.32 0.28 0.28 0.20 0.19 0.21 0.21 0.22 0.23 0.26 0.26 0.24 0.23 0.24 0.25 0.23 0.21 0.20 0.22 0.26 0.33 0.36 0.40 0.42 0.45 0.49 0.48 0.53 0.64 0.78 0.97 1.08 1.11 1.12 1.14 1.10
0.29 0.38 0.59 0.61 0.48 0.35 0.31 0.29 0.23 0.17 0.17 0.15 0.15 0.17 0.22 0.27 0.28 0.27 0.26 0.27 0.28 0.25 0.24 0.22 0.22 0.22 0.23 0.26 0.30 0.36 0.42 0.44 0.44 0.45 0.48 0.49 0.51 0.56 0.66 0.76 0.87 0.95 0.98 0.97
0.30 0.35 0.46 0.47 0.34 0.26 0.27 0.25 0.20 0.15 0.14 0.14 0.15 0.15 0.18 0.23 0.27 0.26 0.28 0.27 0.27 0.27 0.28 0.26 0.25 0.27 0.26 0.27 0.29 0.34 0.38 0.42 0.44 0.46 0.51 0.53 0.55 0.58 0.59 0.60 0.66 0.74 0.77 0.88
0.23 0.31 0.42 0.45 0.32 0.27 0.24 0.21 0.19 0.16 0.14 0.15 0.16 0.18 0.20 0.23 0.27 0.31 0.29 0.27 0.24 0.27 0.30 0.30 0.31 0.32 0.30 0.31 0.32 0.35 0.35 0.39 0.41 0.43 0.44 0.44 0.48 0.53 0.55 0.57 0.61 0.69 0.70 0.78